Volver al catálogo

EXPLORER 36

GEOS 2

ActivoCienciaLEO
NORAD 3093·PAYLOAD·🇺🇸 United States

Lanzado Jan 11, 1968 desde Vandenberg Space Force Base

Loading…

Próximos Pases (próximas 24 horas)

TLE

ActualizadoSource: Space-Track

Época: Sep 14, 2026, 14:42 UTC

1 03093U 68002A   26257.61254280 -.00000084  00000-0 -25049-4 0  9999
2 03093 105.7780 185.3934 0319427 320.4751 215.7685 12.83608304748835

Sigue EXPLORER 36 en tiempo real con AllMySat

Download on the App Store